Data for 09/11/2017

Time Sea-Level Adjusted Pressure Absolute Pressure Temperature Relative Humidity Dew Point   
(mb) (inHg) (mb) (inHg) (C) (F) (%) (C) (F)
00:05 1026 30.3 855 25.25 17 62.7 47 5.6 42.1
00:10 1026 30.3 855 25.25 17.4 63.4 46 5.7 42.3
00:15 1026 30.3 855 25.25 17.5 63.5 46 6 42.8
00:20 1026 30.3 855 25.25 17.2 63 46 5.6 42
00:25 1026 30.3 855 25.25 17.5 63.4 46 5.7 42.3
00:30 1026 30.3 855 25.25 17.1 62.8 47 5.7 42.3
00:35 1026 30.3 855 25.25 17.2 62.9 45 5.2 41.4
00:40 1026 30.3 855 25.25 17.2 63 46 5.7 42.3
00:45 1026 30.3 855 25.25 16.8 62.3 48 5.9 42.6
00:50 1026 30.3 855 25.25 16.6 61.8 48 5.5 42
00:55 1026 30.3 855 25.25 16.7 62.1 47 5.6 42
01:00 1026 30.3 855 25.25 16.7 62.1 48 5.8 42.5
01:05 1026 30.3 855 25.25 16.5 61.7 50 6 42.8
01:10 1026 30.3 855 25.25 16.2 61.1 50 6 42.8
01:15 1026 30.3 855 25.25 15.9 60.5 52 6 42.8
01:20 1026 30.3 855 25.25 15.7 60.2 52 5.9 42.5
01:25 1026 30.3 855 25.25 15.7 60.3 51 5.7 42.3
01:30 1026 30.3 855 25.25 15.8 60.4 52 5.9 42.7
01:35 1026 30.3 855 25.25 15.6 60 52 5.8 42.5
01:40 1026 30.3 856 25.28 15.3 59.5 53 5.7 42.3
01:45 1026 30.3 856 25.28 15.3 59.6 50 5.1 41.2
01:50 1026 30.3 856 25.28 15.7 60.3 51 5.7 42.3
01:55 1027 30.33 856 25.28 15.6 60.1 51 5.5 41.8
02:00 1027 30.33 856 25.28 15.4 59.7 52 5.7 42.2
02:05 1027 30.33 856 25.28 15.3 59.5 52 5.6 42.2
02:10 1027 30.33 856 25.28 15.1 59.1 53 5.7 42.2
02:15 1027 30.33 856 25.28 14.7 58.5 54 5.6 42.2
02:20 1027 30.33 856 25.28 14.4 57.9 54 5.4 41.7
02:25 1027 30.33 856 25.28 14.4 57.9 54 5.3 41.5
02:30 1027 30.33 856 25.28 14.6 58.2 53 5.3 41.5
02:35 1027 30.33 856 25.28 14.6 58.3 53 5.2 41.3
02:40 1027 30.33 856 25.28 14.7 58.4 53 5.2 41.4
02:45 1027 30.33 856 25.28 14.7 58.4 53 5.3 41.5
02:50 1027 30.33 856 25.28 14.7 58.5 52 5.2 41.3
02:55 1027 30.33 856 25.28 14.9 58.8 51 5 40.9
03:00 1027 30.33 856 25.28 15.2 59.4 51 5.2 41.4
03:05 1027 30.33 856 25.28 15.1 59.3 52 5.4 41.6
03:10 1027 30.33 856 25.28 14.9 58.9 53 5.5 42
03:15 1027 30.33 856 25.28 14.7 58.4 53 5.2 41.4
03:20 1027 30.33 856 25.28 14.8 58.6 54 5.6 42.1
03:25 1027 30.33 856 25.28 14.3 57.8 55 5.4 41.8
03:30 1027 30.33 856 25.28 14.3 57.7 54 5.1 41.2
03:35 1027 30.33 856 25.28 14.5 58.1 53 5.2 41.4
03:40 1027 30.33 856 25.28 14.6 58.3 54 5.4 41.7
03:45 1027 30.33 856 25.28 14.4 57.9 54 5.3 41.5
03:50 1027 30.33 856 25.28 14.2 57.6 56 5.5 42
03:55 1027 30.33 856 25.28 13.6 56.5 58 5.7 42.2
04:00 1027 30.33 856 25.28 13.3 56 58 5.3 41.6
04:05 1027 30.33 856 25.28 13.3 56 59 5.5 41.8
04:10 1027 30.33 856 25.28 13.4 56.1 58 5.3 41.5
04:15 1027 30.33 856 25.28 13.5 56.3 57 5.2 41.4
04:20 1027 30.33 856 25.28 13.5 56.3 57 5.1 41.2
04:25 1027 30.33 856 25.28 13.7 56.6 56 5 41.1
04:30 1027 30.33 856 25.28 13.8 56.8 55 5 41
04:35 1027 30.33 856 25.28 13.9 57 55 5 41
04:40 1027 30.33 856 25.28 13.8 56.9 56 5.2 41.4
04:45 1027 30.33 856 25.28 13.6 56.5 57 5.2 41.4
04:50 1027 30.33 856 25.28 13.5 56.3 56 5 41
04:55 1027 30.33 856 25.28 13.4 56.2 58 5.3 41.6
05:00 1027 30.33 856 25.28 13 55.5 59 5.4 41.6
05:05 1027 30.33 856 25.28 12.7 54.9 61 5.3 41.6
05:10 1027 30.33 856 25.28 12.5 54.5 61 5.3 41.5
05:15 1027 30.33 856 25.28 12.5 54.4 61 5.3 41.6
05:20 1027 30.33 856 25.28 12.4 54.3 62 5.4 41.7
05:25 1027 30.33 856 25.28 12.2 53.9 63 5.4 41.8
05:30 1027 30.33 856 25.28 11.9 53.4 63 5.2 41.4
05:35 1027 30.33 856 25.28 11.9 53.3 64 5.3 41.5
05:40 1027 30.33 856 25.28 12 53.5 64 5.3 41.6
05:45 1027 30.33 856 25.28 12 53.6 62 5.1 41.2
05:50 1027 30.33 856 25.28 12.1 53.7 62 5.1 41.2
05:55 1027 30.33 856 25.28 12.1 53.7 62 5 41
06:00 1027 30.33 856 25.28 12.1 53.8 62 5.2 41.3
06:05 1027 30.33 856 25.28 11.9 53.5 63 5.1 41.2
06:10 1027 30.33 856 25.28 12 53.5 62 5 41
06:15 1027 30.33 856 25.28 12.3 54.1 60 4.8 40.6
06:20 1027 30.33 856 25.28 12.6 54.6 59 4.8 40.7
06:25 1027 30.33 856 25.28 12.8 55.1 57 4.5 40.2
06:30 1027 30.33 856 25.28 12.7 54.9 58 4.9 40.7
06:35 1027 30.33 856 25.28 12.7 54.8 58 4.6 40.2
06:40 1027 30.33 856 25.28 12.6 54.7 58 4.8 40.6
06:45 1027 30.33 856 25.28 12.5 54.4 59 4.7 40.4
06:50 1027 30.33 856 25.28 12.4 54.3 59 4.8 40.6
06:55 1027 30.33 856 25.28 12.2 54 61 5 41
07:00 1027 30.33 856 25.28 11.8 53.3 63 5 41
07:05 1027 30.33 856 25.28 11.7 53.1 62 4.8 40.6
07:10 1027 30.33 857 25.31 11.8 53.2 62 4.7 40.5
07:15 1027 30.33 857 25.31 11.8 53.3 60 4.5 40
07:20 1027 30.33 857 25.31 11.9 53.5 62 5 41
07:25 1027 30.33 857 25.31 12.1 53.8 59 4.3 39.8
07:30 1027 30.33 857 25.31 12.3 54.1 62 5.2 41.3
07:35 1027 30.33 857 25.31 11.9 53.4 60 4.5 40.2
07:40 1027 30.33 857 25.31 12.4 54.4 57 4.1 39.5
07:45 1027 30.33 857 25.31 13 55.4 57 4.7 40.5
07:50 1027 30.33 857 25.31 13 55.4 57 4.8 40.7
07:55 1027 30.33 857 25.31 13.1 55.5 57 4.7 40.5
08:00 1028 30.36 857 25.31 13.5 56.2 56 4.8 40.7
08:05 1028 30.36 857 25.31 13.4 56.1 56 4.8 40.7
08:10 1027 30.33 857 25.31 13.6 56.4 56 5 41
08:15 1027 30.33 857 25.31 13.3 56 58 5.3 41.5
08:20 1027 30.33 857 25.31 13.3 56 57 5.2 41.3
08:25 1027 30.33 857 25.31 13.7 56.6 56 5.2 41.3
08:30 1027 30.33 857 25.31 14.2 57.6 56 5.7 42.3
08:35 1027 30.33 857 25.31 14.4 57.9 55 5.6 42.2
08:40 1027 30.33 857 25.31 14.7 58.4 53 5.2 41.4
08:45 1028 30.36 857 25.31 15.2 59.4 54 6 42.8
08:50 1028 30.36 857 25.31 15.8 60.4 52 5.9 42.6
08:55 1027 30.33 857 25.31 16.2 61.1 48 5.4 41.7
09:00 1027 30.33 857 25.31 16.7 62.1 50 6.2 43.2
09:05 1027 30.33 857 25.31 17.3 63.2 46 5.8 42.4
09:10 1027 30.33 857 25.31 17.8 64.1 48 6.7 44
09:15 1027 30.33 857 25.31 17.8 64 46 6.2 43.2
09:20 1027 30.33 857 25.31 18.4 65.1 44 6.1 43
09:25 1027 30.33 857 25.31 18.6 65.5 45 6.4 43.6
09:30 1027 30.33 857 25.31 18.8 65.8 41 5.3 41.5
09:35 1027 30.33 857 25.31 18.6 65.4 47 7 44.6
09:40 1027 30.33 857 25.31 19.3 66.7 39 5.3 41.5
09:45 1027 30.33 857 25.31 19.9 67.9 38 5.2 41.3
09:50 1027 30.33 857 25.31 19.8 67.7 39 5.5 41.8
09:55 1027 30.33 857 25.31 19.8 67.7 38 5.3 41.5
10:00 1027 30.33 857 25.31 20.6 69 35 4.9 40.9
10:05 1027 30.33 857 25.31 20.9 69.5 36 5.3 41.6
10:10 1027 30.33 857 25.31 21 69.8 36 5.4 41.6
10:15 1027 30.33 857 25.31 20.7 69.2 37 5.6 42
10:20 1027 30.33 857 25.31 20.3 68.6 37 5.5 41.9
10:25 1027 30.33 857 25.31 20.1 68.2 38 5.4 41.7
10:30 1027 30.33 857 25.31 20.3 68.6 36 5 41
10:35 1027 30.33 857 25.31 20.6 69 37 5.4 41.7
10:40 1027 30.33 857 25.31 21.4 70.4 34 4.9 40.8
10:45 1027 30.33 856 25.28 21.8 71.3 30 3.9 38.9
10:50 1027 30.33 856 25.28 22.1 71.7 30 4 39.1
10:55 1027 30.33 856 25.28 22.2 71.9 29 3.7 38.6
11:00 1027 30.33 856 25.28 22.6 72.6 31 4.6 40.3
11:05 1027 30.33 856 25.28 22.5 72.5 29 4 39.2
11:10 1027 30.33 856 25.28 22.2 72 31 4.3 39.7
11:15 1027 30.33 856 25.28 22.7 72.8 28 3.3 37.9
11:20 1027 30.33 856 25.28 22.9 73.2 29 4 39.2
11:25 1027 30.33 856 25.28 22.7 72.9 29 4.1 39.4
11:30 1027 30.33 856 25.28 23.3 73.9 27 3.5 38.3
11:35 1027 30.33 856 25.28 22.9 73.1 29 3.9 39
11:40 1027 30.33 856 25.28 22.6 72.6 27 3 37.5
11:45 1027 30.33 856 25.28 23.5 74.2 28 4.3 39.7
11:50 1027 30.33 856 25.28 23.7 74.7 26 3.3 37.9
11:55 1027 30.33 856 25.28 23.7 74.7 27 3.7 38.7
12:00 1027 30.33 856 25.28 23.2 73.8 27 3.6 38.4
12:05 1027 30.33 856 25.28 23.2 73.7 27 3.1 37.6
12:10 1027 30.33 856 25.28 23.9 75.1 26 3.7 38.6
12:15 1026 30.3 856 25.28 23.3 73.9 27 3.5 38.3
12:20 1026 30.3 856 25.28 24.3 75.8 25 3.5 38.3
12:25 1026 30.3 856 25.28 23.9 74.9 27 3.8 38.8
12:30 1026 30.3 855 25.25 24.3 75.8 26 3.7 38.6
12:35 1026 30.3 855 25.25 25 77.1 25 3.8 38.9
12:40 1026 30.3 855 25.25 25 76.9 25 3.7 38.6
12:45 1026 30.3 855 25.25 25 77 24 3.5 38.4
12:50 1026 30.3 855 25.25 25.5 77.8 23 3.2 37.7
12:55 1026 30.3 855 25.25 25.8 78.4 23 3.4 38.2
13:00 1026 30.3 855 25.25 25.2 77.3 24 3.2 37.8
13:05 1026 30.3 855 25.25 25.1 77.2 23 2.7 36.9
13:10 1026 30.3 855 25.25 25.7 78.2 21 2.1 35.8
13:15 1026 30.3 855 25.25 25.8 78.4 20 1.6 34.9
13:20 1026 30.3 855 25.25 25.8 78.5 20 1.2 34.1
13:25 1026 30.3 855 25.25 25.3 77.6 21 1.7 35.1
13:30 1026 30.3 855 25.25 25.9 78.5 19 1 33.8
13:35 1025 30.27 855 25.25 26.5 79.6 19 1.3 34.4
13:40 1025 30.27 855 25.25 26.2 79.2 19 1.2 34.1
13:45 1025 30.27 855 25.25 26.5 79.7 18 0.8 33.4
13:50 1025 30.27 854 25.22 26.7 80.1 18 0.6 33.1
13:55 1025 30.27 854 25.22 26.3 79.4 18 0.3 32.6
14:00 1025 30.27 854 25.22 26.3 79.3 17 -0.5 31.1
14:05 1025 30.27 854 25.22 26.2 79.1 19 0.9 33.6
14:10 1025 30.27 854 25.22 26.2 79.1 17 -0.7 30.8
14:15 1025 30.27 854 25.22 26.9 80.3 16 -1.1 30
14:20 1025 30.27 854 25.22 27.3 81.1 16 -0.4 31.3
14:25 1025 30.27 854 25.22 27.6 81.6 17 0.5 33
14:30 1025 30.27 854 25.22 27.7 81.8 15 -1 30.1
14:35 1025 30.27 854 25.22 26.5 79.8 16 -0.9 30.5
14:40 1024 30.24 854 25.22 27.2 80.9 17 0.2 32.4
14:45 1024 30.24 854 25.22 27.7 81.9 15 -0.7 30.8
14:50 1024 30.24 854 25.22 27.9 82.2 14 -1.3 29.7
14:55 1024 30.24 853 25.19 27.8 82 15 -0.6 31
15:00 1024 30.24 853 25.19 27.6 81.8 15 -1.2 29.8
15:05 1024 30.24 853 25.19 27.5 81.5 14 -2.1 28.3
15:10 1024 30.24 853 25.19 27.2 80.9 15 -1.8 28.8
15:15 1024 30.24 853 25.19 27 80.6 15 -1.6 29.2
15:20 1024 30.24 853 25.19 27.9 82.2 15 -0.9 30.3
15:25 1024 30.24 853 25.19 28.5 83.3 14 -1.2 29.8
15:30 1024 30.24 853 25.19 28.2 82.7 14 -1.5 29.3
15:35 1024 30.24 853 25.19 28.1 82.7 14 -1.5 29.4
15:40 1024 30.24 853 25.19 27.8 82 15 -1.3 29.7
15:45 1024 30.24 853 25.19 27.8 82 14 -2 28.4
15:50 1024 30.24 853 25.19 28 82.3 14 -1.6 29
15:55 1023 30.21 853 25.19 28.3 83 14 -1.6 29.1
16:00 1023 30.21 853 25.19 28.1 82.6 14 -1.3 29.7
16:05 1023 30.21 853 25.19 28 82.4 14 -1.7 29
16:10 1023 30.21 853 25.19 27.8 82.1 13 -2.8 27
16:15 1023 30.21 853 25.19 28.3 82.9 14 -1.4 29.5
16:20 1023 30.21 852 25.16 28.4 83.1 14 -1.8 28.7
16:25 1023 30.21 852 25.16 28.3 83 13 -2.2 28.1
16:30 1023 30.21 852 25.16 27.7 81.8 13 -2.4 27.6
16:35 1023 30.21 852 25.16 27.9 82.2 13 -2.6 27.3
16:40 1023 30.21 852 25.16 28.4 83.1 13 -2.5 27.6
16:45 1023 30.21 852 25.16 28.4 83.1 13 -2.2 28
16:50 1023 30.21 852 25.16 28.2 82.7 14 -1.5 29.3
16:55 1023 30.21 852 25.16 28.2 82.8 14 -1.5 29.3
17:00 1023 30.21 852 25.16 28.7 83.6 14 -0.9 30.4
17:05 1023 30.21 852 25.16 28.5 83.4 14 -1.4 29.5
17:10 1023 30.21 852 25.16 27.7 81.9 15 -1.4 29.4
17:15 1023 30.21 852 25.16 28.1 82.7 14 -1.3 29.7
17:20 1023 30.21 852 25.16 28.1 82.6 15 -0.7 30.7
17:25 1023 30.21 852 25.16 27.8 82.1 15 -1 30.3
17:30 1023 30.21 852 25.16 28.1 82.5 15 -1 30.2
17:35 1023 30.21 852 25.16 28.5 83.3 15 -0.5 31.2
17:40 1023 30.21 852 25.16 28.5 83.3 15 -0.4 31.3
17:45 1023 30.21 852 25.16 28.5 83.2 15 -0.4 31.2
17:50 1022 30.18 852 25.16 28.6 83.5 15 0.2 32.3
17:55 1023 30.21 852 25.16 28.6 83.5 15 -0.4 31.3
18:00 1022 30.18 852 25.16 28.3 82.9 15 -0.6 30.9
18:05 1022 30.18 852 25.16 28.1 82.7 15 -0.8 30.5
18:10 1022 30.18 852 25.16 28.2 82.8 15 -0.5 31
18:15 1022 30.18 852 25.16 27.9 82.1 15 -0.5 31.2
18:20 1022 30.18 852 25.16 27.4 81.3 16 0 32.1
18:25 1022 30.18 852 25.16 27.1 80.8 17 0.6 33.1
18:30 1022 30.18 852 25.16 27.1 80.8 15 -1.1 30
18:35 1022 30.18 851 25.13 27 80.6 15 -1.5 29.4
18:40 1022 30.18 851 25.13 26.9 80.3 15 -1.3 29.7
18:45 1022 30.18 851 25.13 26.9 80.4 16 -1 30.2
18:50 1022 30.18 851 25.13 26.9 80.4 17 -0.2 31.6
18:55 1022 30.18 851 25.13 26.8 80.2 17 0.2 32.4
19:00 1022 30.18 851 25.13 26.6 79.9 18 0.8 33.4
19:05 1022 30.18 851 25.13 26.4 79.5 19 1.1 33.9
19:10 1022 30.18 851 25.13 25.8 78.5 22 2.9 37.3
19:15 1022 30.18 851 25.13 25.2 77.4 22 2.4 36.2
19:20 1022 30.18 851 25.13 25 77.1 22 2 35.7
19:25 1022 30.18 851 25.13 24.8 76.6 22 1.9 35.5
19:30 1022 30.18 851 25.13 24.6 76.3 23 2.1 35.8
19:35 1022 30.18 851 25.13 24.3 75.8 25 3.3 38
19:40 1022 30.18 851 25.13 23.7 74.7 28 4.4 39.9
19:45 1022 30.18 851 25.13 23 73.3 27 3.2 37.7
19:50 1022 30.18 851 25.13 22.6 72.7 28 3.5 38.3
19:55 1022 30.18 851 25.13 22.1 71.8 28 3.1 37.5
20:00 1022 30.18 851 25.13 21.7 71 28 2.5 36.4
20:05 1022 30.18 851 25.13 21.3 70.4 28 2.3 36.2
20:10 1022 30.18 851 25.13 21 69.9 28 2.1 35.8
20:15 1022 30.18 851 25.13 20.7 69.3 29 2.3 36.2
20:20 1022 30.18 851 25.13 20.4 68.7 30 2.3 36.2
20:25 1022 30.18 851 25.13 20.1 68.3 29 1.9 35.5
20:30 1022 30.18 851 25.13 20.1 68.2 30 2 35.6
20:35 1022 30.18 851 25.13 20 68 30 1.9 35.4
20:40 1022 30.18 851 25.13 19.8 67.6 32 2.6 36.7
20:45 1022 30.18 851 25.13 19 66.2 32 2 35.5
20:50 1022 30.18 852 25.16 18.9 66 30 1.1 34
20:55 1022 30.18 852 25.16 19.5 67.1 27 0.3 32.5
21:00 1022 30.18 852 25.16 19.9 67.7 26 0.1 32.2
21:05 1022 30.18 852 25.16 19.8 67.7 26 -0 31.9
21:10 1022 30.18 852 25.16 19.5 67.1 28 0.7 33.3
21:15 1022 30.18 852 25.16 18.8 65.9 28 0.1 32.3
21:20 1022 30.18 852 25.16 19.1 66.3 28 0.1 32.1
21:25 1022 30.18 852 25.16 19.1 66.4 28 0.3 32.6
21:30 1022 30.18 852 25.16 18.6 65.5 29 0.4 32.7
21:35 1022 30.18 852 25.16 18.3 65 29 0.2 32.3
21:40 1022 30.18 852 25.16 18.3 64.9 29 0.2 32.4
21:45 1022 30.18 852 25.16 18.3 64.9 29 0.1 32.1
21:50 1022 30.18 852 25.16 18.3 64.9 29 -0.1 31.8
21:55 1022 30.18 852 25.16 18.3 65 29 0.1 32.1
22:00 1022 30.18 852 25.16 18.3 64.9 29 -0 32
22:05 1022 30.18 851 25.13 18.2 64.7 29 0 32
22:10 1022 30.18 851 25.13 18.1 64.6 29 -0.2 31.6
22:15 1022 30.18 851 25.13 18.2 64.8 29 -0.2 31.7
22:20 1022 30.18 851 25.13 18.1 64.6 29 -0.2 31.6
22:25 1022 30.18 851 25.13 18.1 64.5 29 -0.3 31.5
22:30 1022 30.18 851 25.13 18 64.3 29 -0.2 31.7
22:35 1022 30.18 851 25.13 17.8 64 29 -0.4 31.4
22:40 1022 30.18 851 25.13 17.8 64.1 29 -0.4 31.3
22:45 1022 30.18 851 25.13 18 64.3 28 -0.5 31
22:50 1022 30.18 851 25.13 18.2 64.8 27 -0.8 30.6
22:55 1022 30.18 851 25.13 18.5 65.3 28 -0.4 31.3
23:00 1022 30.18 851 25.13 18 64.4 29 -0.3 31.5
23:05 1022 30.18 851 25.13 17.9 64.2 28 -0.8 30.6
23:10 1022 30.18 851 25.13 18.4 65.2 26 -1.3 29.7
23:15 1022 30.18 851 25.13 18.7 65.6 26 -1 30.2
23:20 1022 30.18 851 25.13 18.5 65.2 28 -0.4 31.3
23:25 1022 30.18 851 25.13 18 64.5 27 -0.9 30.4
23:30 1022 30.18 851 25.13 18 64.4 27 -1.1 30.1
23:35 1022 30.18 852 25.16 18.2 64.8 26 -1.4 29.4
23:40 1022 30.18 852 25.16 18.8 65.8 26 -1.1 30.1
23:45 1022 30.18 852 25.16 18.7 65.6 27 -0.5 31.1
23:50 1022 30.18 851 25.13 18.3 65 26 -1.3 29.7
23:55 1022 30.18 851 25.13 18.3 64.9 26 -1.4 29.5
24:00 1022 30.18 851 25.13 18 64.4 27 -1.1 29.9